[[{"header":{"parameterUnit":"m.s-1","parameterCategory":1,"la1":30.2992,"la2":30.254,"lo1":-89.0895,"lo2":-89.0443,"dy":0.0025,"dx":0.0025,"nx":19,"ny":19,"refTime":"2026-03-27T09:00:00:Z","depth":0,"parameterNumber":2,"parameterNumberName":"U-component_of_WINDS"},"data":[0,0,0,-5.128,-5.1286,-5.1516,-5.1516,-5.1842,-5.1845,0,0,0,0,0,0,0,0,0,0,0,-5.1232,-5.1235,-5.128,-5.1286,-5.1515,-5.1516,-5.1842,-5.1846,0,0,0,0,0,0,0,0,0,0,0,-5.123,-5.1234,-5.1237,-5.1287,-5.1515,-5.1516,-5.1841,-5.1656,0,0,0,0,0,0,0,0,0,0,-5.1428,-5.1402,-5.1233,-5.1238,-5.1289,-5.1515,-5.1516,-5.1647,-5.1668,-5.1752,0,-5.1832,0,-5.1844,-5.1869,-5.1871,0,0,0,-5.1272,-5.1385,-5.1429,-5.1238,-5.1291,-5.1515,-5.1408,-5.1658,-5.1682,-5.178,-5.1836,-5.1847,-5.1849,-5.1872,-5.1873,-5.2405,-5.2408,0,0,-5.1259,-5.1284,-5.1413,-5.1445,-5.1411,-5.1401,-5.1415,-5.1672,-5.1735,-5.1837,-5.1854,-5.1855,-5.1874,-5.1877,-5.2402,-5.2406,0,0,0,-5.1232,-5.1276,-5.1313,-5.1433,-5.1471,-5.1408,-5.1424,-5.1724,-5.1734,-5.1858,-5.1859,-5.1876,-5.188,-5.2398,-5.2403,-5.2583,0,0,0,-5.1224,-5.126,-5.1308,-5.1325,-5.1467,-5.1601,-5.1471,-5.1716,-5.1744,-5.1857,-5.1876,-5.1884,-5.2395,-5.2401,-5.2571,-5.2665,0,0,0,-5.121,-5.1258,-5.1298,-5.1326,-5.1426,-5.1596,-5.162,-5.1721,-5.1746,-5.1871,-5.1885,-5.2392,-5.24,-5.256,-5.2647,-5.2812,0,0,0,-5.1203,-5.1456,-5.1301,-5.1584,-5.1424,-5.1705,-5.1618,-5.1826,-5.1955,-5.1878,-5.2395,-5.2403,-5.2556,-5.2635,-5.2801,-5.2957,-5.3024,0,0,-5.1536,-5.1497,-5.1661,-5.1529,-5.1844,-5.1668,-5.2009,-5.2104,-5.2093,-5.2302,-5.2314,-5.2575,-5.2645,-5.281,-5.3389,-5.3443,0,0,0,-5.1775,-5.1893,-5.1971,-5.2094,-5.2172,-5.2246,-5.2286,-5.232,-5.2495,-5.2205,-5.2678,-5.2719,-5.2815,-5.2888,-5.2934,-5.3014,-5.2437,-5.2437,-5.2436,-5.2284,-5.2255,-5.2524,-5.2523,-5.2644,-5.2681,-5.2776,-5.2829,-5.2766,-5.2878,-5.2941,-5.3295,-5.3383,-5.3417,-5.3501,-5.3019,-5.302,-5.3021,-5.3021,-5.277,-5.2933,-5.2841,-5.3069,-5.3037,-5.3229,-5.3274,-5.3222,-5.3396,-5.3246,-5.3329,-5.317,-5.3476,-5.3548,-5.3034,-5.3032,-5.303,-5.3029,-5.3028,-5.3101,-5.3174,-5.3211,-5.3385,-5.3522,-5.3511,-5.3681,-5.3646,-5.3614,-5.3695,-5.3757,-5.3754,-5.3748,-5.3727,-5.3728,-5.3729,-5.373,-5.3731,-5.3732,-5.3431,-5.3466,-5.3615,-5.3716,-5.3789,-5.3882,-5.3919,-5.3991,-5.4061,-5.4021,-5.4022,-5.3948,-5.3511,-5.3402,-5.3751,-5.3748,-5.3745,-5.3744,-5.3742,-5.3938,-5.3817,-5.4046,-5.4119,-5.4235,-5.4373,-5.4324,-5.4472,-5.4525,-5.461,-5.4518,-5.42,-5.4158,-5.4122,-5.4032,-5.4523,-5.4523,-5.4523,-5.4523,-5.4219,-5.4193,-5.4418,-5.4537,-5.465,-5.4628,-5.4887,-5.4918,-5.4932,-5.4963,-5.4886,-5.4763,-5.4727,-5.4706,-5.4657,-5.4573,-5.5191,-5.5191,-5.5192,-5.4529,-5.4511,-5.474,-5.4749,-5.4836,-5.4912,-5.5154,-5.5295,-5.5284,-5.5218,-5.4986,-5.4958,-5.4759,-5.4696,-5.4628,-5.4552,-5.4397,0,0]},{"header":{"parameterUnit":"m.s-1","parameterCategory":1,"la1":30.2992,"la2":30.254,"lo1":-89.0895,"lo2":-89.0443,"dy":0.0025,"dx":0.0025,"nx":19,"ny":19,"refTime":"2026-03-27T09:00:00:Z","depth":0,"parameterNumber":3,"parameterNumberName":"V-component_of_WINDS"},"data":[0,0,0,-2.7664,-2.7664,-2.7669,-2.7669,-2.7681,-2.7682,0,0,0,0,0,0,0,0,0,0,0,-2.7667,-2.7668,-2.7664,-2.7664,-2.7669,-2.7669,-2.7681,-2.7682,0,0,0,0,0,0,0,0,0,0,0,-2.7667,-2.7668,-2.7668,-2.7664,-2.7669,-2.7669,-2.7681,-2.7675,0,0,0,0,0,0,0,0,0,0,-2.7669,-2.7678,-2.7668,-2.7668,-2.7664,-2.7669,-2.7669,-2.7675,-2.7675,-2.7682,0,-2.7691,0,-2.7687,-2.7683,-2.7683,0,0,0,-2.766,-2.7677,-2.7674,-2.7668,-2.7664,-2.7669,-2.7666,-2.7675,-2.7676,-2.7683,-2.7691,-2.7691,-2.7687,-2.7683,-2.7683,-2.7737,-2.7737,0,0,-2.7659,-2.7671,-2.7673,-2.7675,-2.7677,-2.7666,-2.7666,-2.7675,-2.7684,-2.7691,-2.7691,-2.7687,-2.7683,-2.7683,-2.7736,-2.7737,0,0,0,-2.7661,-2.7671,-2.7667,-2.7675,-2.7675,-2.7666,-2.7666,-2.7684,-2.7682,-2.7691,-2.7687,-2.7683,-2.7684,-2.7736,-2.7737,-2.7769,0,0,0,-2.7661,-2.7672,-2.7667,-2.7675,-2.7675,-2.768,-2.7675,-2.7681,-2.7682,-2.7687,-2.7683,-2.7684,-2.7735,-2.7736,-2.7768,-2.7783,0,0,0,-2.7665,-2.7673,-2.7675,-2.7675,-2.7678,-2.768,-2.7678,-2.7681,-2.7679,-2.7683,-2.7684,-2.7735,-2.7736,-2.7766,-2.778,-2.7799,0,0,0,-2.7673,-2.7706,-2.7676,-2.7711,-2.7678,-2.7701,-2.7678,-2.7694,-2.7701,-2.7683,-2.7736,-2.7737,-2.7765,-2.7778,-2.7797,-2.7816,-2.7825,0,0,-2.7721,-2.7712,-2.7731,-2.7705,-2.7736,-2.7699,-2.7734,-2.7729,-2.7719,-2.7731,-2.7732,-2.7768,-2.778,-2.7798,-2.7876,-2.7884,0,0,0,-2.775,-2.7764,-2.777,-2.7777,-2.7775,-2.7772,-2.7761,-2.7759,-2.7768,-2.7728,-2.778,-2.7787,-2.7797,-2.7805,-2.7812,-2.7819,-2.7741,-2.7741,-2.7741,-2.7835,-2.7819,-2.7849,-2.7833,-2.784,-2.7827,-2.783,-2.7824,-2.7807,-2.7819,-2.7823,-2.7872,-2.7882,-2.7887,-2.7894,-2.7832,-2.7833,-2.7833,-2.7833,-2.7902,-2.7918,-2.7892,-2.7912,-2.7894,-2.7909,-2.7896,-2.7883,-2.7893,-2.7869,-2.7877,-2.7851,-2.7896,-2.7901,-2.7835,-2.7835,-2.7834,-2.7834,-2.7834,-2.7955,-2.7959,-2.7956,-2.7962,-2.7969,-2.7951,-2.7961,-2.7945,-2.7929,-2.7937,-2.7937,-2.7936,-2.7932,-2.7939,-2.7939,-2.7939,-2.7939,-2.7939,-2.7939,-2.801,-2.8005,-2.8016,-2.8014,-2.8015,-2.8013,-2.7998,-2.7998,-2.7993,-2.798,-2.798,-2.7959,-2.7904,-2.7889,-2.7942,-2.7941,-2.7941,-2.7941,-2.7941,-2.8082,-2.8062,-2.808,-2.8081,-2.8074,-2.808,-2.8058,-2.8058,-2.8055,-2.806,-2.8037,-2.8,-2.799,-2.7984,-2.7972,-2.8043,-2.8043,-2.8043,-2.8043,-2.8125,-2.8118,-2.813,-2.8132,-2.8131,-2.8112,-2.8129,-2.8116,-2.81,-2.8096,-2.8084,-2.8066,-2.8062,-2.8054,-2.8047,-2.8035,-2.812,-2.812,-2.812,-2.8167,-2.8158,-2.8177,-2.8161,-2.8154,-2.8148,-2.8162,-2.8163,-2.814,-2.8123,-2.8092,-2.8089,-2.8061,-2.8053,-2.8035,-2.8025,-2.8003,0,0]}]]